This demonstration page uses our WeatherBlox Daily Observations layout. Learn more.

Left ArrowRight Arrow

39.51506, -84.39828

Hourly Observations for April 18, 2015

Temp ( °F °C ) Dew Point ( °F °C ) Humidity (%) Winds ( mph kmh ) Pressure ( in mb ) Visibility ( mi km ) Precip ( " mm )
12:15 am 00:15 Clear 55 12.5 46 7.7 73 73 NNE 3 6 30.06 1018 10 16.0934 N/A
12:35 am 00:35 Clear 55 12.5 47 8.3 76 76 N N/A 30.06 1018 10 16.0934 N/A
12:55 am 00:55 Clear 55 12.5 47 8.5 77 77 N N/A 30.06 1018 10 16.0934 N/A
1:35 am 01:35 Clear 55 12.5 47 8.5 77 77 N N/A 30.06 1018 10 16.0934 N/A
1:55 am 01:55 Clear 52 11 46 8 82 82 N N/A 30.06 1018 10 16.0934 N/A
2:15 am 02:15 Clear 52 11 46 7.5 79 79 N N/A 30.06 1018 10 16.0934 N/A
2:35 am 02:35 Clear 50 9.9 44 6.6 80 80 N N/A 30.06 1018 10 16.0934 N/A
2:55 am 02:55 Clear 51 10.3 45 7.1 81 81 N N/A 30.06 1018 10 16.0934 N/A
3:15 am 03:15 Clear 49 9.6 43 6.2 80 80 N N/A 30.06 1018 10 16.0934 N/A
3:35 am 03:35 Clear 49 9.6 43 6 78 78 N N/A 30.06 1018 10 16.0934 N/A
3:55 am 03:55 Clear 49 9.6 44 6.8 83 83 N N/A 30.06 1018 10 16.0934 N/A
4:15 am 04:15 Clear 49 9.6 45 7 84 84 NE 3 6 30.06 1018 10 16.0934 N/A
4:35 am 04:35 Clear 49 9.6 45 7.1 85 85 N N/A 30.06 1018 10 16.0934 N/A
4:55 am 04:55 Clear 49 9.6 45 7.1 85 85 N N/A 30.06 1018 10 16.0934 N/A
5:15 am 05:15 Clear 49 9.6 45 7 84 84 NNE 3 6 30.06 1018 10 16.0934 N/A
5:35 am 05:35 Clear 49 9.6 45 7 84 84 N 3 6 30.06 1018 10 16.0934 N/A
5:55 am 05:55 Clear 48 8.7 43 6.1 84 84 N 3 6 30.06 1018 10 16.0934 N/A
6:15 am 06:15 Clear 49 9.3 44 6.9 85 85 N 3 6 30.06 1018 10 16.0934 N/A
6:35 am 06:35 Clear 49 9.6 45 7.1 85 85 N N/A 30.06 1018 10 16.0934 N/A
6:55 am 06:55 Clear 47 8.2 42 5.8 85 85 N N/A 30.06 1018 10 16.0934 N/A
7:15 am 07:15 Sunny 47 8.2 43 6 86 86 NNE 3 6 30.06 1018 10 16.0934 N/A
7:35 am 07:35 Sunny 49 9.4 45 7.2 86 86 N N/A 30.09 1019 10 16.0934 N/A
7:55 am 07:55 Sunny 49 9.6 45 7.2 85 85 N N/A 30.09 1019 10 16.0934 N/A
8:15 am 08:15 Sunny 52 11 47 8.2 83 83 NNE 3 6 30.09 1019 10 16.0934 N/A
8:35 am 08:35 Sunny 55 12.5 48 9.1 80 80 N N/A 30.09 1019 10 16.0934 N/A
8:55 am 08:55 Sunny 56 13.6 49 9.4 76 76 N N/A 30.09 1019 10 16.0934 N/A
9:15 am 09:15 Sunny 60 15.3 49 9.4 68 68 N N/A 30.09 1019 10 16.0934 N/A
9:35 am 09:35 Sunny 61 16 47 8.5 61 61 N N/A 30.09 1019 10 16.0934 N/A
9:55 am 09:55 Sunny 63 17.4 48 9 58 58 N N/A 30.06 1018 10 16.0934 N/A
10:15 am 10:15 Sunny 69 20.5 48 8.8 47 47 N N/A 30.06 1018 10 16.0934 N/A
10:35 am 10:35 Sunny 69 20.8 47 8.5 45 45 N N/A 30.06 1018 10 16.0934 N/A
10:55 am 10:55 Sunny 69 20.8 47 8.1 44 44 N N/A 30.03 1017 10 16.0934 N/A
11:15 am 11:15 Sunny 72 22.3 47 8.5 41 41 NNE 3 6 30.03 1017 10 16.0934 N/A
11:35 am 11:35 Sunny 74 23.6 44 6.4 33 33 N N/A 30.03 1017 10 16.0934 N/A
11:55 am 11:55 Sunny 74 23.6 43 5.9 32 32 N N/A 30.03 1017 10 16.0934 N/A
12:15 pm 12:15 Sunny 74 23.6 42 5.5 31 31 NNE 3 6 30.03 1017 10 16.0934 N/A
12:35 pm 12:35 Sunny 76 24.5 43 6.2 31 31 E 3 6 30.03 1017 10 16.0934 N/A
12:55 pm 12:55 Sunny 77 25.1 42 5.7 29 29 N N/A 30.03 1017 10 16.0934 N/A
1:15 pm 13:15 Sunny 77 25.1 41 5.1 28 28 N N/A 30.03 1017 10 16.0934 N/A
1:35 pm 13:35 Sunny 77 25.1 42 5.4 28 28 E 5 7 30.03 1017 10 16.0934 N/A
1:55 pm 13:55 Sunny 78 25.4 40 4.6 26 26 ENE 6 9 30.03 1017 10 16.0934 N/A
2:15 pm 14:15 Sunny 77 25.2 41 5 27 27 ENE 5 7 30 1016 10 16.0934 N/A
2:35 pm 14:35 Sunny 77 25.1 43 6 29 29 NE 7 11 30 1016 10 16.0934 N/A
2:55 pm 14:55 Sunny 77 25.1 41 4.8 27 27 E 6 9 30 1016 10 16.0934 N/A
3:15 pm 15:15 Partly Cloudy 77 25.1 42 5.4 28 28 NE 5 7 30 1016 10 16.0934 N/A
3:35 pm 15:35 Mostly Cloudy 79 25.9 44 6.6 29 29 ENE 9 15 30 1016 10 16.0934 N/A
3:55 pm 15:55 Partly Cloudy 77 25.1 42 5.4 28 28 E 5 7 30 1016 10 16.0934 N/A
4:15 pm 16:15 Partly Cloudy 77 25.1 43 6.1 30 30 E 6 9 30 1016 10 16.0934 N/A
4:35 pm 16:35 Mostly Cloudy 77 25.1 41 4.8 27 27 E 7 11 29.97 1015 10 16.0934 N/A
4:55 pm 16:55 Mostly Cloudy 77 25.1 45 7.3 32 32 ENE 6 9 29.97 1015 10 16.0934 N/A
5:15 pm 17:15 Partly Cloudy 77 25.1 43 6.2 30 30 E 8 13 29.97 1015 10 16.0934 N/A
5:35 pm 17:35 Sunny 77 25.1 42 5.3 28 28 ESE 9 15 29.97 1015 10 16.0934 N/A
5:55 pm 17:55 Sunny 77 25.1 43 6.1 30 30 E 12 19 29.97 1015 10 16.0934 N/A
6:15 pm 18:15 Sunny 77 25.1 46 7.7 33 33 E 9 15 29.97 1015 10 16.0934 N/A
6:35 pm 18:35 Sunny 74 23.6 44 6.8 34 34 ENE 7 11 29.97 1015 10 16.0934 N/A
6:55 pm 18:55 Sunny 74 23.6 47 8.3 38 38 ENE 7 11 29.94 1014 10 16.0934 N/A
7:15 pm 19:15 Sunny 77 25.1 46 8 34 34 E 6 9 29.94 1014 10 16.0934 N/A
7:35 pm 19:35 Sunny 74 23.6 48 8.7 39 39 ENE 6 9 29.94 1014 10 16.0934 N/A
7:55 pm 19:55 Sunny 74 23.6 47 8.6 38 38 ENE 3 6 29.94 1014 10 16.0934 N/A
8:15 pm 20:15 Sunny 72 22.2 47 8.3 41 41 E 3 6 29.97 1015 10 16.0934 N/A
8:35 pm 20:35 Clear 69 20.8 50 10.1 51 51 N N/A 29.97 1015 10 16.0934 N/A
8:55 pm 20:55 Clear 69 20.4 56 13.1 63 63 N N/A 29.97 1015 10 16.0934 N/A
9:15 pm 21:15 Clear 64 18 55 12.6 71 71 N N/A 29.97 1015 10 16.0934 N/A
9:35 pm 21:35 Clear 62 16.6 52 11.2 71 71 N 3 6 29.97 1015 10 16.0934 N/A
9:55 pm 21:55 Clear 62 16.6 52 11.3 71 71 N N/A 29.97 1015 10 16.0934 N/A
10:15 pm 22:15 Clear 62 16.6 53 11.8 73 73 N N/A 29.97 1015 10 16.0934 N/A
10:35 pm 22:35 Clear 61 16.2 53 11.5 74 74 N N/A 29.97 1015 10 16.0934 N/A
10:55 pm 22:55 Clear 60 15.4 52 10.9 75 75 NE 3 6 30 1016 10 16.0934 N/A
11:15 pm 23:15 Clear 62 16.5 51 10.6 68 68 ENE 7 11 29.97 1015 10 16.0934 N/A
11:35 pm 23:35 Clear 63 17.1 50 10 63 63 NE 7 11 29.97 1015 10 16.0934 N/A
11:55 pm 23:55 Clear 64 17.7 50 9.9 60 60 NE 8 13 29.97 1015 10 16.0934 N/A

Powered by AerisWeather